STARLINK-3516, 51739

Orbit data source: Space-Track

STARLINK-3516, 51739 is a payload satellite owned by SpaceX/Seattle (US) in LEO that was launched on Mon, 21 Feb 2022 UTC via an FALCON 9 launch vehicle from the Air Force Eastern Test Range (AFETR). Payload-class satellites include a variety of spacecraft equipped with specific instruments for various scientific and technological missions. These include communications satellites like Starlink; space stations such as the ISS; scientific satellites like the Hubble; Earth observation satellites from companies like Planet Labs, Umbra, and HawkEye 360; GPS; miniature CubeSats for education and research; and military/defense satellites.

Loading next visibility...
Identifier
51739, 2022-016AB
Orbit
LEO
Country
Flag of USUS
Related business
Manufacturer
SpaceX/Seattle
Mission
Operational Commercial Communications
Bus & Motor
STARLINK, Unknown motor
Mass
297 kg wet, ~275 kg dry
Launch date (UTC)
2022-02-21 (4 years ago)
Launch vehicle
FALCON 9
Launch site
Air Force Eastern Test Range (AFETR)
Object type
Payload
Rocket body
Debris
Shape & HBR
Box + 1 Pan, 10.1 m
Radar Cross Section
13.562 m², Large (>1 m²)

Expand to show TLE details & history
Last TLE update: 2 days ago

TLE from 2 days ago
0 STARLINK-3516
1 51739U 22016AB  26171.38679532  .00000158  00000-0  28009-4 0  9993
2 51739  53.1593 217.9798 0001263  87.9830 272.1306 15.08834671239067
Epoch: 2026-06-20T09:16Z
TLE epoch observation values (Epoch: 2026-06-20T09:16:59.115Z)
Latitude
-0.00003°
Longitude
170.13131°
Altitude
540.619 km
Speed
7.593 km/s
True Right ascension
14h 31m 55s
True Declination
0° 00' 00"
Sunlit
Object was in full shadow at epoch
Visualization orbit readout
Latitude
Unknown
Longitude
Unknown
Altitude
Unknown
Speed
Unknown
Apparent Right ascension
Unknown
Apparent Declination
Unknown
Sunlit
N/A
Visualization observer readout
Local Sidereal Time
21:31:49
Azimuth
Unknown
Elevation
Unknown
Doppler factor
Unknown
Orbital elements
Apogee altitude
540.888 km
Perigee altitude
539.14 km
Semi-major axis
6,918.151 km
Eccentricity
0.00013
Inclination
53.1593°
RAAN
217.9798°
Arg. of periapsis
87.983°
True anomaly
272.11614°
Mean anomaly
272.1306°
Eccentric anomaly
272.12337°
Mean motion
3.77188 °/min
Orbital period
95.44 mins
BSTAR
0.000028009
Loading maneuver chart data...
Computing Atmospheric mass density...
Loading historical data...
Loading historical data...
Loading historical data...
Loading historical data...
Loading historical data...
Loading historical data...
Loading historical data...

Documentation

Showing up to 5 results
|